W9LCQ Weather Reports


time (UTC)temp
F
wind
direction
speed
knots
gust
knots
rain 1hr
in
rain 24hr
in
rain mn
in
humidity
%
barometer
mb
20260502163004 69 340 1.7 7.8 0.00 1.01 0.00 59 1021.1
20260502162004 68 47 0.9 10.4 0.00 1.01 0.00 61 1021.2
20260502161004 67 65 0.9 6.1 0.00 1.01 0.00 63 1021.2
20260502152004 64 75 0.9 10.4 0.00 1.01 0.00 69 1021.0
20260502123004 54 358 1.7 4.3 0.00 1.01 0.00 88 1019.3
20260502122004 54 284 0.9 2.6 0.00 1.01 0.00 88 1019.2
20260502121004 53 2 0.0 2.6 0.00 1.01 0.00 88 1018.9
20260502115003 53 338 0.0 2.6 0.00 1.01 0.00 87 1018.8
20260502114004 53 5 0.9 4.3 0.00 1.01 0.00 87 1018.6
20260502113004 53 333 0.0 4.3 0.00 1.01 0.00 87 1018.5
20260502112004 54 335 0.9 4.3 0.00 1.01 0.00 87 1018.6
20260502111004 54 296 0.0 1.7 0.00 1.01 0.00 86 1018.5
20260502110004 54 317 0.0 0.9 0.00 1.01 0.00 86 1018.5
20260502105004 54 313 0.0 1.7 0.00 1.01 0.00 85 1018.4
20260502104005 55 326 0.0 0.9 0.00 1.01 0.00 85 1018.2
20260502102004 55 65 0.0 2.6 0.00 1.01 0.00 84 1017.9
20260502101004 55 42 0.0 0.9 0.00 1.01 0.00 84 1017.7
20260502091004 56 67 0.9 4.3 0.00 1.01 0.00 85 1016.5
20260502070004 56 88 0.0 7.0 0.00 1.01 0.00 88 1016.4
20260502065004 57 19 0.0 7.0 0.00 1.01 0.00 89 1016.5
20260502064005 57 355 0.0 7.0 0.00 1.01 0.00 89 1016.4
20260502061004 56 348 0.9 7.8 0.00 1.01 0.00 90 1016.0
20260502060004 56 94 0.0 5.2 0.00 1.01 0.00 90 1016.1
20260502055003 56 90 0.9 10.4 0.00 1.01 0.00 90 1016.0
20260502054004 56 353 0.9 7.0 0.00 1.01 0.00 91 1016.0
20260502053004 56 334 0.9 4.3 0.00 1.01 0.00 91 1016.0
20260502052004 56 282 0.0 6.1 0.00 1.01 0.00 91 1016.1
20260502051005 56 48 0.9 7.8 0.00 1.01 0.00 91 1016.0
20260502050004 56 77 0.9 7.0 0.00 1.01 0.00 91 1015.9
20260502044004 56 8 0.9 8.7 0.00 1.01 1.78 91 1015.8
20260502043004 56 324 0.9 6.1 0.00 1.01 1.78 91 1015.8
20260502042003 56 17 0.0 5.2 0.00 1.01 1.78 92 1016.1
20260502041004 56 33 0.9 13.0 0.00 1.01 1.78 92 1016.0
20260502040004 56 282 1.7 8.7 0.00 1.01 1.78 92 1015.7
20260502035004 57 337 0.9 7.8 0.00 1.01 1.78 92 1015.7
20260502033004 56 60 0.9 10.4 0.00 1.01 1.78 92 1015.6
20260502032005 57 18 2.6 8.7 0.00 1.01 1.78 92 1015.4
20260502031004 57 93 0.0 8.7 0.00 1.01 1.78 92 1015.2
20260502030005 57 338 0.9 4.3 0.00 1.01 1.78 92 1015.0
20260502025004 57 37 1.7 8.7 0.02 1.01 1.78 92 1014.4
20260502023005 58 40 0.9 8.7 0.03 1.01 1.78 91 1013.9
20260502021004 59 76 0.0 4.3 0.03 1.01 1.78 92 1013.5
20260502020004 59 54 0.0 4.3 0.04 1.01 1.78 92 1013.8
20260502015004 59 60 0.0 7.0 0.03 0.99 1.76 92 1013.6
20260502014004 58 316 0.0 7.0 0.03 0.98 1.75 92 1013.6
20260502013004 59 37 1.7 11.3 0.03 0.98 1.75 92 1013.5
20260502012003 59 326 0.9 7.0 0.04 0.98 1.75 92 1013.4
20260502011004 59 321 0.9 7.8 0.04 0.98 1.75 92 1013.1
20260502010004 59 318 4.3 12.2 0.04 0.97 1.74 92 1012.6
20260502005004 59 59 1.7 8.7 0.05 0.96 1.73 92 1012.5
20260502004004 59 269 1.7 7.8 0.09 0.95 1.72 92 1012.9
20260502003004 59 333 0.0 7.8 0.13 0.95 1.72 92 1012.2
20260502002004 60 285 0.9 7.8 0.14 0.94 1.71 92 1011.9
20260502001004 60 61 0.0 5.2 0.16 0.94 1.71 92 1011.8
20260502000004 60 46 0.0 7.0 0.17 0.93 1.70 92 1011.9
20260501235004 60 26 0.9 8.7 0.16 0.91 1.68 92 1011.8
20260501234004 60 315 0.0 10.4 0.12 0.86 1.63 92 1012.4
20260501231004 61 92 1.7 7.8 0.04 0.78 1.55 92 1010.2
20260501230004 61 313 0.0 7.0 0.02 0.76 1.53 92 1011.3
20260501225004 61 39 1.7 10.4 0.01 0.75 1.52 92 1010.5
20260501224004 61 65 0.9 8.7 0.01 0.74 1.51 92 1010.6
20260501221004 61 65 1.7 11.3 0.17 0.74 1.51 92 1009.9
20260501214004 62 320 0.0 10.4 0.25 0.73 1.50 92 1010.9
20260501213004 62 111 1.7 7.0 0.23 0.70 1.47 92 1011.0
20260501212004 62 60 0.9 4.3 0.20 0.64 1.41 92 1010.6
20260501211004 62 29 0.0 2.6 0.16 0.57 1.34 92 1011.0
20260501210004 62 69 0.0 4.3 0.13 0.51 1.28 92 1010.6
20260501204004 62 74 1.7 8.7 0.11 0.48 1.25 92 1009.1
20260501203004 63 67 0.9 5.2 0.10 0.47 1.24 92 1009.4
20260501200004 63 60 0.9 4.3 0.04 0.38 1.15 92 1009.7
20260501195004 63 44 0.0 7.8 0.05 0.38 1.15 92 1009.3
20260501194004 63 46 0.9 7.8 0.04 0.37 1.14 92 1008.9
20260501193003 63 36 0.9 7.0 0.05 0.37 1.14 92 1009.0
20260501192004 63 68 0.9 2.6 0.17 0.36 1.13 92 1009.2
20260501190004 63 91 0.9 7.0 0.26 0.34 1.11 92 1009.8
20260501185004 63 21 0.0 10.4 0.28 0.33 1.10 92 1009.3
20260501184004 63 66 1.7 10.4 0.33 0.33 1.10 92 1008.6
20260501183005 63 97 1.7 10.4 0.32 0.32 1.09 92 1008.9
20260501182004 63 94 4.3 8.7 0.22 0.19 0.96 92 1008.7
20260501180004 63 95 2.6 10.4 0.13 0.08 0.85 92 1008.8